| time (UTC) | temp F | wind direction | speed knots | gust knots | rain 1hr in | rain 24hr in | rain mn in | humidity % | barometer mb |
| 20260508010134 | 52 | 140 | 0.9 | 1.7 | 0.00 | 0.34 | 0.34 | 99 | 1012.5 |
| 20260508005631 | 52 | 198 | 0.0 | 1.7 | 0.00 | 0.34 | 0.34 | 99 | 1012.7 |
| 20260508005127 | 53 | 200 | 0.0 | 1.7 | 0.00 | 0.34 | 0.34 | 99 | 1012.2 |
| 20260508004622 | 53 | 126 | 1.7 | 2.6 | 0.00 | 0.34 | 0.34 | 99 | 1012.3 |
| 20260508004119 | 53 | 243 | 0.0 | 1.7 | 0.00 | 0.34 | 0.34 | 99 | 1012.3 |
| 20260508003616 | 53 | 225 | 1.7 | 2.6 | 0.00 | 0.34 | 0.34 | 99 | 1012.2 |
| 20260508003114 | 53 | 85 | 0.0 | 1.7 | 0.00 | 0.34 | 0.34 | 99 | 1011.9 |
| 20260508002610 | 53 | 108 | 0.9 | 2.6 | 0.00 | 0.34 | 0.34 | 99 | 1011.6 |
| 20260508002108 | 53 | 282 | 0.0 | 2.6 | 0.00 | 0.34 | 0.34 | 99 | 1011.7 |
| 20260508001603 | 53 | 82 | 1.7 | 2.6 | 0.00 | 0.34 | 0.34 | 99 | 1011.6 |
| 20260508001059 | 53 | 74 | 0.0 | 1.7 | 0.00 | 0.34 | 0.34 | 99 | 1012.1 |
| 20260508000555 | 53 | 178 | 0.0 | 2.6 | 0.00 | 0.34 | 0.34 | 99 | 1011.6 |
| 20260508000053 | 53 | 107 | 0.0 | 2.6 | 0.00 | 0.34 | 0.34 | 99 | 1011.8 |
| 20260507235549 | 53 | 68 | 1.7 | 1.7 | 0.00 | 0.34 | 0.34 | 99 | 1011.8 |
| 20260507235047 | 53 | 64 | 0.0 | 1.7 | 0.00 | 0.34 | 0.34 | 99 | 1011.5 |
| 20260507234543 | 53 | 85 | 0.0 | 0.9 | 0.00 | 0.34 | 0.34 | 99 | 1011.7 |
| 20260507234039 | 53 | 265 | 0.0 | 1.7 | 0.00 | 0.34 | 0.34 | 99 | 1011.5 |
| 20260507233536 | 53 | 120 | 1.7 | 3.5 | 0.00 | 0.34 | 0.34 | 99 | 1011.4 |
| 20260507233035 | 53 | 45 | 0.0 | 1.7 | 0.00 | 0.34 | 0.34 | 99 | 1011.5 |
| 20260507232531 | 53 | 192 | 1.7 | 2.6 | 0.00 | 0.34 | 0.34 | 99 | 1011.6 |
| 20260507232028 | 53 | 133 | 0.9 | 1.7 | 0.00 | 0.34 | 0.34 | 99 | 1011.7 |
| 20260507231524 | 53 | 63 | 0.0 | 1.7 | 0.00 | 0.34 | 0.34 | 99 | 1011.6 |
| 20260507231022 | 53 | 101 | 0.0 | 1.7 | 0.00 | 0.34 | 0.34 | 99 | 1011.7 |
| 20260507230519 | 53 | 210 | 0.0 | 1.7 | 0.00 | 0.34 | 0.34 | 99 | 1011.6 |
| 20260507230015 | 53 | 227 | 0.0 | 2.6 | 0.00 | 0.34 | 0.34 | 99 | 1011.5 |
| 20260507225510 | 53 | 136 | 1.7 | 2.6 | 0.00 | 0.34 | 0.34 | 99 | 1011.3 |
| 20260507225007 | 53 | 20 | 0.0 | 2.6 | 0.00 | 0.34 | 0.34 | 99 | 1011.4 |
| 20260507224503 | 53 | 193 | 1.7 | 2.6 | 0.00 | 0.34 | 0.34 | 99 | 1011.3 |
| 20260507223959 | 54 | 144 | 0.0 | 2.6 | 0.00 | 0.34 | 0.34 | 99 | 1011.2 |
| 20260507223455 | 54 | 186 | 1.7 | 2.6 | 0.00 | 0.34 | 0.34 | 99 | 1011.0 |
| 20260507222953 | 54 | 190 | 1.7 | 1.7 | 0.00 | 0.34 | 0.34 | 99 | 1011.0 |
| 20260507222449 | 54 | 175 | 1.7 | 1.7 | 0.00 | 0.34 | 0.34 | 99 | 1011.1 |
| 20260507221946 | 54 | 85 | 0.0 | 2.6 | 0.00 | 0.34 | 0.34 | 99 | 1011.2 |
| 20260507221443 | 54 | 92 | 0.0 | 2.6 | 0.00 | 0.34 | 0.34 | 99 | 1011.3 |
| 20260507220939 | 54 | 158 | 0.9 | 2.6 | 0.00 | 0.34 | 0.34 | 99 | 1011.0 |
| 20260507220437 | 53 | 70 | 1.7 | 4.3 | 0.00 | 0.34 | 0.34 | 99 | 1011.0 |
| 20260507215933 | 53 | 171 | 0.0 | 4.3 | 0.02 | 0.34 | 0.34 | 99 | 1010.7 |
| 20260507215430 | 54 | 97 | 0.0 | 3.5 | 0.02 | 0.34 | 0.34 | 99 | 1010.9 |
| 20260507214927 | 54 | 46 | 0.0 | 2.6 | 0.00 | 0.34 | 0.34 | 99 | 1011.3 |
| 20260507214425 | 54 | 111 | 0.9 | 3.5 | 0.00 | 0.34 | 0.34 | 99 | 1011.4 |
| 20260507213920 | 54 | 356 | 0.0 | 2.6 | 0.00 | 0.34 | 0.34 | 99 | 1011.0 |
| 20260507213417 | 54 | 133 | 1.7 | 3.5 | 0.00 | 0.34 | 0.34 | 99 | 1010.5 |
| 20260507212914 | 54 | 146 | 0.9 | 2.6 | 0.00 | 0.34 | 0.34 | 99 | 1011.1 |
| 20260507212409 | 54 | 103 | 4.3 | 8.7 | 0.00 | 0.34 | 0.34 | 99 | 1010.9 |
| 20260507211906 | 54 | 153 | 3.5 | 4.3 | 0.00 | 0.34 | 0.34 | 99 | 1011.0 |
| 20260507211403 | 55 | 150 | 1.7 | 5.2 | 0.00 | 0.34 | 0.34 | 99 | 1010.9 |
| 20260507210900 | 54 | 170 | 0.9 | 2.6 | 0.00 | 0.34 | 0.34 | 99 | 1011.1 |
| 20260507210357 | 54 | 147 | 0.9 | 3.5 | 0.00 | 0.34 | 0.34 | 99 | 1011.1 |
| 20260507205853 | 54 | 143 | 0.9 | 3.5 | 0.00 | 0.34 | 0.34 | 99 | 1011.3 |
| 20260507205350 | 54 | 127 | 1.7 | 2.6 | 0.00 | 0.34 | 0.34 | 99 | 1011.1 |
| 20260507204846 | 54 | 143 | 0.0 | 1.7 | 0.00 | 0.34 | 0.34 | 99 | 1010.9 |
| 20260507204343 | 54 | 90 | 0.9 | 2.6 | 0.00 | 0.34 | 0.34 | 99 | 1011.2 |
| 20260507203841 | 54 | 121 | 1.7 | 6.1 | 0.00 | 0.34 | 0.34 | 99 | 1011.0 |
| 20260507203339 | 54 | 120 | 1.7 | 4.3 | 0.00 | 0.34 | 0.34 | 99 | 1011.2 |
| 20260507202835 | 54 | 133 | 4.3 | 5.2 | 0.05 | 0.34 | 0.34 | 99 | 1011.3 |
| 20260507202332 | 53 | 147 | 2.6 | 3.5 | 0.05 | 0.34 | 0.34 | 99 | 1011.4 |
| 20260507201827 | 53 | 187 | 2.6 | 4.3 | 0.00 | 0.33 | 0.33 | 99 | 1011.6 |
| 20260507201323 | 54 | 118 | 1.7 | 3.5 | 0.00 | 0.33 | 0.33 | 99 | 1011.3 |
| 20260507200819 | 54 | 133 | 1.7 | 3.5 | 0.00 | 0.33 | 0.33 | 99 | 1011.2 |
| 20260507200315 | 54 | 82 | 2.6 | 3.5 | 0.00 | 0.33 | 0.33 | 99 | 1011.4 |
| 20260507195811 | 54 | 168 | 3.5 | 4.3 | 0.02 | 0.33 | 0.33 | 99 | 1011.2 |
| 20260507195309 | 53 | 119 | 2.6 | 4.3 | 0.26 | 0.33 | 0.33 | 99 | 1011.3 |
| 20260507194806 | 53 | 111 | 2.6 | 4.3 | 0.26 | 0.33 | 0.33 | 99 | 1011.5 |
| 20260507194302 | 53 | 113 | 1.7 | 3.5 | 0.00 | 0.28 | 0.28 | 99 | 1011.4 |
| 20260507193759 | 53 | 137 | 0.0 | 4.3 | 0.00 | 0.28 | 0.28 | 99 | 1011.3 |
| 20260507193256 | 53 | 50 | 2.6 | 7.8 | 0.00 | 0.28 | 0.28 | 99 | 1011.3 |
| 20260507192752 | 54 | 41 | 4.3 | 6.1 | 0.00 | 0.28 | 0.28 | 99 | 1011.2 |
| 20260507192249 | 53 | 142 | 1.7 | 7.0 | 0.00 | 0.28 | 0.28 | 99 | 1011.5 |
| 20260507191745 | 54 | 101 | 1.7 | 3.5 | 0.00 | 0.28 | 0.28 | 99 | 1011.3 |
| 20260507191242 | 53 | 81 | 1.7 | 4.3 | 0.00 | 0.28 | 0.28 | 99 | 1011.3 |
| 20260507190738 | 53 | 83 | 3.5 | 12.2 | 0.00 | 0.28 | 0.28 | 99 | 1011.3 |
| 20260507190237 | 53 | 138 | 3.5 | 12.2 | 0.00 | 0.28 | 0.28 | 99 | 1011.0 |
| 20260507185735 | 54 | 106 | 0.0 | 7.0 | 0.00 | 0.28 | 0.28 | 99 | 1011.1 |
| 20260507185232 | 54 | 127 | 3.5 | 7.0 | 0.00 | 0.28 | 0.28 | 99 | 1011.2 |
| 20260507184729 | 54 | 106 | 2.6 | 6.1 | 0.00 | 0.28 | 0.28 | 99 | 1011.3 |
| 20260507184227 | 55 | 116 | 3.5 | 3.5 | 0.00 | 0.28 | 0.28 | 99 | 1011.4 |
| 20260507183724 | 54 | 123 | 1.7 | 9.6 | 0.00 | 0.28 | 0.28 | 99 | 1011.0 |
| 20260507183220 | 54 | 77 | 3.5 | 8.7 | 0.00 | 0.28 | 0.28 | 99 | 1011.1 |
| 20260507182717 | 54 | 136 | 8.7 | 10.4 | 0.00 | 0.28 | 0.28 | 99 | 1010.9 |
| 20260507182207 | 54 | 91 | 3.5 | 16.5 | 0.00 | 0.28 | 0.28 | 99 | 1011.1 |
| 20260507181704 | 54 | 120 | 3.5 | 9.6 | 0.00 | 0.28 | 0.28 | 99 | 1011.1 |
| 20260507181201 | 54 | 115 | 3.5 | 7.0 | 0.00 | 0.28 | 0.28 | 99 | 1011.4 |
| 20260507180657 | 54 | 149 | 3.5 | 4.3 | 0.00 | 0.28 | 0.28 | 99 | 1011.3 |
| 20260507180154 | 55 | 104 | 2.6 | 4.3 | 0.00 | 0.28 | 0.28 | 99 | 1011.4 |
| 20260507175650 | 54 | 137 | 4.3 | 14.8 | 0.00 | 0.28 | 0.28 | 99 | 1011.3 |
| 20260507175147 | 55 | 111 | 5.2 | 10.4 | 0.00 | 0.28 | 0.28 | 99 | 1011.3 |
| 20260507174644 | 55 | 104 | 4.3 | 9.6 | 0.00 | 0.28 | 0.28 | 99 | 1011.2 |
| 20260507174142 | 54 | 71 | 3.5 | 7.8 | 0.00 | 0.28 | 0.28 | 99 | 1011.4 |
| 20260507173639 | 54 | 139 | 3.5 | 9.6 | 0.02 | 0.28 | 0.28 | 99 | 1011.0 |
| 20260507173136 | 54 | 145 | 4.3 | 6.1 | 0.07 | 0.28 | 0.28 | 99 | 1011.2 |
| 20260507172632 | 53 | 132 | 3.5 | 9.6 | 0.07 | 0.28 | 0.28 | 99 | 1011.6 |
| 20260507172130 | 53 | 128 | 3.5 | 11.3 | 0.02 | 0.27 | 0.27 | 99 | 1011.7 |
| 20260507171630 | 53 | 109 | 5.2 | 9.6 | 0.00 | 0.27 | 0.27 | 99 | 1012.0 |
| 20260507171127 | 53 | 98 | 2.6 | 7.8 | 0.00 | 0.27 | 0.27 | 99 | 1012.0 |
| 20260507170624 | 53 | 79 | 2.6 | 7.0 | 0.05 | 0.27 | 0.27 | 99 | 1011.6 |
| 20260507170121 | 53 | 70 | 3.5 | 12.2 | 0.05 | 0.27 | 0.27 | 99 | 1011.8 |
| 20260507165617 | 53 | 133 | 3.5 | 14.8 | 0.05 | 0.26 | 0.26 | 99 | 1012.1 |
| 20260507165113 | 54 | 84 | 1.7 | 6.1 | 0.05 | 0.26 | 0.26 | 99 | 1011.7 |
| 20260507164609 | 55 | 138 | 3.5 | 9.6 | 0.00 | 0.25 | 0.25 | 99 | 1011.5 |
| 20260507164106 | 55 | 144 | 0.9 | 3.5 | 0.00 | 0.25 | 0.25 | 99 | 1011.5 |
| 20260507163603 | 55 | 123 | 1.7 | 3.5 | 0.00 | 0.25 | 0.25 | 99 | 1011.3 |
| 20260507163101 | 55 | 116 | 2.6 | 6.1 | 0.02 | 0.25 | 0.25 | 99 | 1011.5 |
| 20260507162556 | 55 | 99 | 2.6 | 6.1 | 0.02 | 0.25 | 0.25 | 99 | 1011.1 |
| 20260507162054 | 55 | 75 | 6.1 | 8.7 | 0.02 | 0.25 | 0.25 | 99 | 1011.2 |
| 20260507161549 | 55 | 86 | 3.5 | 4.3 | 0.12 | 0.25 | 0.25 | 99 | 1011.3 |
| 20260507161046 | 55 | 103 | 2.6 | 6.1 | 0.09 | 0.24 | 0.24 | 99 | 1011.5 |
| 20260507160542 | 55 | 122 | 2.6 | 5.2 | 0.05 | 0.23 | 0.23 | 99 | 1012.0 |
| 20260507160039 | 55 | 109 | 1.7 | 5.2 | 0.19 | 0.22 | 0.22 | 99 | 1012.3 |
| 20260507155534 | 55 | 17 | 1.7 | 5.2 | 0.17 | 0.22 | 0.22 | 99 | 1012.3 |
| 20260507155032 | 55 | 87 | 2.6 | 4.3 | 0.00 | 0.19 | 0.19 | 99 | 1012.4 |
| 20260507154529 | 55 | 112 | 0.0 | 3.5 | 0.00 | 0.19 | 0.19 | 99 | 1012.2 |
| 20260507154026 | 55 | 146 | 0.9 | 3.5 | 0.00 | 0.19 | 0.19 | 99 | 1011.7 |
| 20260507153523 | 55 | 113 | 1.7 | 2.6 | 0.00 | 0.19 | 0.19 | 99 | 1011.7 |
| 20260507153019 | 55 | 91 | 2.6 | 8.7 | 0.00 | 0.19 | 0.19 | 99 | 1011.7 |
| 20260507152514 | 55 | 113 | 3.5 | 10.4 | 0.02 | 0.19 | 0.19 | 99 | 1011.6 |
| 20260507152011 | 55 | 82 | 1.7 | 5.2 | 0.00 | 0.19 | 0.19 | 99 | 1011.6 |
| 20260507151507 | 55 | 112 | 3.5 | 3.5 | 0.07 | 0.19 | 0.19 | 99 | 1011.9 |
| 20260507151005 | 55 | 122 | 1.7 | 6.1 | 0.17 | 0.19 | 0.19 | 99 | 1011.8 |
| 20260507150501 | 55 | 103 | 3.5 | 4.3 | 0.12 | 0.18 | 0.18 | 99 | 1011.4 |
| 20260507145957 | 54 | 121 | 2.6 | 7.8 | 0.02 | 0.16 | 0.16 | 99 | 1011.3 |
| 20260507145453 | 55 | 118 | 6.1 | 11.3 | 0.00 | 0.16 | 0.16 | 99 | 1011.5 |
| 20260507144950 | 55 | 97 | 4.3 | 9.6 | 0.00 | 0.16 | 0.16 | 99 | 1011.6 |
| 20260507144447 | 55 | 91 | 2.6 | 5.2 | 0.00 | 0.16 | 0.16 | 99 | 1011.9 |
| 20260507143944 | 55 | 103 | 2.6 | 7.0 | 0.02 | 0.16 | 0.16 | 99 | 1011.8 |
| 20260507143442 | 55 | 114 | 2.6 | 9.6 | 0.02 | 0.16 | 0.16 | 99 | 1011.8 |
| 20260507142938 | 55 | 89 | 1.7 | 6.1 | 0.00 | 0.15 | 0.15 | 99 | 1011.7 |
| 20260507142434 | 55 | 124 | 3.5 | 6.1 | 0.00 | 0.15 | 0.15 | 99 | 1011.4 |
| 20260507141932 | 55 | 113 | 2.6 | 4.3 | 0.00 | 0.15 | 0.15 | 99 | 1010.6 |
| 20260507141427 | 55 | 107 | 3.5 | 7.8 | 0.00 | 0.15 | 0.15 | 99 | 1010.6 |
| 20260507140924 | 55 | 109 | 3.5 | 5.2 | 0.00 | 0.15 | 0.15 | 99 | 1010.9 |
| 20260507140421 | 55 | 114 | 2.6 | 6.1 | 0.00 | 0.15 | 0.15 | 99 | 1011.2 |
| 20260507135919 | 55 | 125 | 2.6 | 6.1 | 0.00 | 0.15 | 0.15 | 99 | 1011.0 |
| 20260507135415 | 55 | 72 | 2.6 | 7.0 | 0.00 | 0.15 | 0.15 | 99 | 1011.4 |
| 20260507134913 | 55 | 123 | 1.7 | 5.2 | 0.05 | 0.15 | 0.15 | 99 | 1011.5 |
| 20260507134409 | 55 | 30 | 3.5 | 6.1 | 0.12 | 0.15 | 0.15 | 99 | 1012.0 |
| 20260507133905 | 55 | 123 | 1.7 | 5.2 | 0.09 | 0.15 | 0.15 | 99 | 1011.9 |
| 20260507133400 | 55 | 78 | 2.6 | 5.2 | 0.02 | 0.13 | 0.13 | 99 | 1012.1 |
| 20260507132854 | 56 | 122 | 2.6 | 4.3 | 0.00 | 0.13 | 0.13 | 99 | 1011.7 |
| 20260507132350 | 56 | 105 | 3.5 | 7.8 | 0.00 | 0.13 | 0.13 | 99 | 1011.2 |
| 20260507131846 | 56 | 86 | 7.8 | 9.6 | 0.00 | 0.13 | 0.13 | 99 | 1011.2 |
| 20260507131343 | 56 | 125 | 3.5 | 6.1 | 0.00 | 0.13 | 0.13 | 99 | 1011.2 |
| 20260507130840 | 56 | 65 | 5.2 | 9.6 | 0.00 | 0.13 | 0.13 | 99 | 1011.2 |
| 20260507130337 | 57 | 79 | 4.3 | 7.0 | 0.00 | 0.13 | 0.13 | 99 | 1010.7 |
| 20260507125831 | 58 | 52 | 4.3 | 8.7 | 0.00 | 0.13 | 0.13 | 99 | 1010.8 |
| 20260507125328 | 62 | 70 | 7.0 | 13.0 | 0.00 | 0.13 | 0.13 | 99 | 1010.8 |
| 20260507124825 | 66 | 77 | 0.0 | 1.7 | 0.00 | 0.13 | 0.13 | 99 | 1011.0 |
| 20260507124321 | 66 | 125 | 0.0 | 1.7 | 0.00 | 0.13 | 0.13 | 99 | 1011.0 |
| 20260507123820 | 66 | 183 | 0.0 | 1.7 | 0.00 | 0.13 | 0.13 | 99 | 1010.8 |
| 20260507123317 | 65 | 170 | 0.0 | 1.7 | 0.00 | 0.13 | 0.13 | 99 | 1010.9 |
| 20260507122813 | 65 | 105 | 0.0 | 1.7 | 0.00 | 0.13 | 0.13 | 99 | 1010.8 |
| 20260507122308 | 65 | 62 | 0.0 | 2.6 | 0.00 | 0.13 | 0.13 | 99 | 1010.7 |
| 20260507121805 | 65 | 70 | 0.0 | 1.7 | 0.00 | 0.13 | 0.13 | 99 | 1010.4 |
| 20260507121301 | 65 | 178 | 0.0 | 2.6 | 0.00 | 0.13 | 0.13 | 99 | 1010.5 |
| 20260507120757 | 65 | 203 | 0.0 | 1.7 | 0.00 | 0.13 | 0.13 | 99 | 1010.8 |
| 20260507120253 | 65 | 234 | 0.0 | 0.9 | 0.00 | 0.13 | 0.13 | 99 | 1010.7 |
| 20260507115750 | 65 | 17 | 0.0 | 1.7 | 0.00 | 0.13 | 0.13 | 99 | 1010.9 |
| 20260507115245 | 65 | 188 | 0.0 | 2.6 | 0.00 | 0.13 | 0.13 | 99 | 1010.5 |
| 20260507114741 | 65 | 207 | 0.0 | 1.7 | 0.00 | 0.13 | 0.13 | 99 | 1010.6 |
| 20260507114239 | 65 | 186 | 0.9 | 2.6 | 0.00 | 0.13 | 0.13 | 99 | 1010.8 |
| 20260507113736 | 65 | 217 | 0.0 | 2.6 | 0.00 | 0.13 | 0.13 | 99 | 1011.3 |
| 20260507113233 | 65 | 235 | 1.7 | 2.6 | 0.00 | 0.13 | 0.13 | 99 | 1011.1 |
| 20260507112731 | 65 | 179 | 0.0 | 1.7 | 0.00 | 0.13 | 0.13 | 99 | 1011.0 |
| 20260507112227 | 65 | 3 | 0.0 | 0.9 | 0.00 | 0.13 | 0.13 | 99 | 1011.1 |
| 20260507111725 | 65 | 187 | 0.9 | 2.6 | 0.02 | 0.13 | 0.13 | 99 | 1010.6 |
| 20260507111222 | 65 | 243 | 0.0 | 1.7 | 0.02 | 0.13 | 0.13 | 99 | 1010.7 |
| 20260507110717 | 65 | 176 | 0.0 | 1.7 | 0.00 | 0.13 | 0.13 | 99 | 1010.6 |
| 20260507110214 | 65 | 179 | 1.7 | 2.6 | 0.00 | 0.13 | 0.13 | 99 | 1010.6 |
| 20260507105711 | 65 | 17 | 0.0 | 0.9 | 0.00 | 0.13 | 0.13 | 99 | 1010.7 |
| 20260507105207 | 65 | 71 | 0.0 | 1.7 | 0.00 | 0.13 | 0.13 | 99 | 1010.3 |
| 20260507104704 | 65 | 159 | 0.9 | 1.7 | 0.07 | 0.13 | 0.13 | 99 | 1010.3 |
| 20260507104201 | 65 | 220 | 0.0 | 1.7 | 0.09 | 0.12 | 0.12 | 99 | 1010.4 |
| 20260507103657 | 65 | 99 | 0.0 | 2.6 | 0.09 | 0.11 | 0.11 | 99 | 1010.0 |
| 20260507103154 | 65 | 222 | 1.7 | 3.5 | 0.09 | 0.11 | 0.11 | 99 | 1010.4 |
| 20260507102650 | 65 | 197 | 0.9 | 2.6 | 0.05 | 0.10 | 0.10 | 99 | 1010.7 |
| 20260507102146 | 65 | 170 | 0.0 | 2.6 | 0.00 | 0.09 | 0.09 | 99 | 1010.7 |
| 20260507101642 | 65 | 182 | 0.0 | 1.7 | 0.00 | 0.09 | 0.09 | 99 | 1010.5 |
| 20260507101138 | 65 | 242 | 0.9 | 2.6 | 0.02 | 0.09 | 0.09 | 99 | 1010.6 |
| 20260507100636 | 65 | 166 | 0.0 | 2.6 | 0.02 | 0.09 | 0.09 | 99 | 1010.5 |
| 20260507100134 | 65 | 165 | 0.9 | 3.5 | 0.00 | 0.09 | 0.09 | 99 | 1010.4 |
| 20260507095632 | 65 | 225 | 0.0 | 2.6 | 0.00 | 0.09 | 0.09 | 99 | 1010.7 |
| 20260507095128 | 65 | 161 | 0.0 | 2.6 | 0.00 | 0.09 | 0.09 | 99 | 1011.0 |
| 20260507094624 | 65 | 225 | 0.0 | 2.6 | 0.00 | 0.09 | 0.09 | 99 | 1010.8 |
| 20260507094121 | 65 | 182 | 0.0 | 1.7 | 0.00 | 0.09 | 0.09 | 99 | 1010.7 |
| 20260507093618 | 65 | 186 | 0.0 | 2.6 | 0.00 | 0.09 | 0.09 | 99 | 1010.6 |
| 20260507093117 | 65 | 107 | 0.0 | 1.7 | 0.00 | 0.09 | 0.09 | 99 | 1010.4 |
| 20260507092613 | 65 | 233 | 0.0 | 1.7 | 0.02 | 0.09 | 0.09 | 99 | 1010.7 |
| 20260507092110 | 65 | 187 | 0.0 | 1.7 | 0.02 | 0.09 | 0.09 | 99 | 1010.4 |
| 20260507091607 | 65 | 117 | 0.0 | 1.7 | 0.00 | 0.08 | 0.08 | 99 | 1010.5 |
| 20260507091103 | 65 | 203 | 0.0 | 2.6 | 0.00 | 0.08 | 0.08 | 99 | 1010.6 |
| 20260507090559 | 65 | 272 | 1.7 | 2.6 | 0.02 | 0.08 | 0.08 | 99 | 1010.4 |
| 20260507090056 | 65 | 234 | 1.7 | 2.6 | 0.02 | 0.08 | 0.08 | 99 | 1010.5 |
| 20260507085553 | 65 | 178 | 0.9 | 2.6 | 0.05 | 0.08 | 0.08 | 99 | 1010.5 |
| 20260507085049 | 65 | 221 | 0.9 | 2.6 | 0.05 | 0.08 | 0.08 | 99 | 1010.7 |
| 20260507084545 | 65 | 221 | 0.0 | 1.7 | 0.00 | 0.07 | 0.07 | 99 | 1010.6 |
| 20260507084037 | 65 | 271 | 0.0 | 0.9 | 0.02 | 0.07 | 0.07 | 99 | 1010.3 |
| 20260507083533 | 65 | 163 | 0.0 | 2.6 | 0.05 | 0.07 | 0.07 | 99 | 1010.4 |
| 20260507083031 | 65 | 79 | 0.0 | 1.7 | 0.02 | 0.07 | 0.07 | 99 | 1010.2 |
| 20260507082527 | 65 | 338 | 0.0 | 4.3 | 0.00 | 0.06 | 0.06 | 99 | 1010.2 |
| 20260507082023 | 65 | 191 | 0.0 | 3.5 | 0.00 | 0.06 | 0.06 | 99 | 1010.4 |
| 20260507081520 | 65 | 245 | 2.6 | 3.5 | 0.00 | 0.06 | 0.06 | 99 | 1010.1 |
| 20260507081017 | 65 | 351 | 1.7 | 2.6 | 0.00 | 0.06 | 0.06 | 99 | 1009.9 |
| 20260507080512 | 65 | 200 | 0.0 | 5.2 | 0.00 | 0.06 | 0.06 | 99 | 1010.0 |
| 20260507080009 | 65 | 157 | 0.0 | 2.6 | 0.00 | 0.06 | 0.06 | 99 | 1010.1 |
| 20260507075504 | 65 | 233 | 2.6 | 4.3 | 0.00 | 0.06 | 0.06 | 99 | 1009.9 |
| 20260507075001 | 66 | 221 | 0.0 | 4.3 | 0.00 | 0.06 | 0.06 | 99 | 1009.9 |
| 20260507074458 | 65 | 240 | 1.7 | 1.7 | 0.00 | 0.06 | 0.06 | 99 | 1010.0 |
| 20260507073956 | 65 | 316 | 1.7 | 4.3 | 0.00 | 0.06 | 0.06 | 99 | 1010.1 |
| 20260507073452 | 65 | 291 | 0.9 | 3.5 | 0.00 | 0.06 | 0.06 | 99 | 1010.3 |
| 20260507072948 | 65 | 216 | 0.0 | 5.2 | 0.00 | 0.06 | 0.06 | 99 | 1010.4 |
| 20260507072446 | 65 | 234 | 0.9 | 3.5 | 0.00 | 0.06 | 0.06 | 99 | 1010.4 |
| 20260507071943 | 65 | 250 | 1.7 | 7.8 | 0.00 | 0.06 | 0.06 | 99 | 1010.4 |
| 20260507071440 | 65 | 240 | 2.6 | 3.5 | 0.00 | 0.06 | 0.06 | 99 | 1010.2 |
| 20260507070937 | 65 | 211 | 3.5 | 5.2 | 0.00 | 0.06 | 0.06 | 99 | 1010.4 |
| 20260507070434 | 65 | 249 | 1.7 | 2.6 | 0.00 | 0.06 | 0.06 | 99 | 1010.5 |
| 20260507065931 | 65 | 225 | 1.7 | 4.3 | 0.00 | 0.06 | 0.06 | 99 | 1010.6 |
| 20260507065427 | 65 | 192 | 1.7 | 3.5 | 0.00 | 0.06 | 0.06 | 99 | 1010.4 |
| 20260507064919 | 66 | 203 | 3.5 | 4.3 | 0.00 | 0.06 | 0.06 | 99 | 1010.5 |
| 20260507064417 | 66 | 292 | 2.6 | 2.6 | 0.00 | 0.06 | 0.06 | 99 | 1010.9 |
| 20260507063915 | 66 | 234 | 0.0 | 2.6 | 0.00 | 0.06 | 0.06 | 99 | 1011.0 |
| 20260507063412 | 66 | 264 | 2.6 | 2.6 | 0.00 | 0.06 | 0.06 | 99 | 1011.2 |
| 20260507062909 | 66 | 251 | 2.6 | 5.2 | 0.00 | 0.06 | 0.06 | 99 | 1011.1 |
| 20260507062405 | 66 | 227 | 0.9 | 4.3 | 0.00 | 0.06 | 0.06 | 99 | 1011.0 |
| 20260507061902 | 66 | 216 | 1.7 | 4.3 | 0.00 | 0.06 | 0.06 | 99 | 1011.1 |
| 20260507061400 | 66 | 243 | 3.5 | 5.2 | 0.00 | 0.06 | 0.06 | 99 | 1011.2 |
| 20260507060853 | 66 | 238 | 1.7 | 3.5 | 0.00 | 0.06 | 0.06 | 99 | 1011.2 |
| 20260507060349 | 66 | 228 | 1.7 | 7.0 | 0.00 | 0.06 | 0.06 | 99 | 1011.3 |
| 20260507055847 | 66 | 272 | 0.0 | 2.6 | 0.00 | 0.06 | 0.06 | 99 | 1011.2 |
| 20260507055341 | 66 | 172 | 0.0 | 2.6 | 0.00 | 0.06 | 0.06 | 99 | 1011.4 |
| 20260507054839 | 66 | 231 | 0.0 | 1.7 | 0.00 | 0.06 | 0.06 | 99 | 1011.9 |
| 20260507054335 | 66 | 257 | 2.6 | 3.5 | 0.00 | 0.06 | 0.06 | 99 | 1011.4 |
| 20260507053832 | 66 | 224 | 1.7 | 5.2 | 0.00 | 0.06 | 0.06 | 99 | 1011.7 |
| 20260507053330 | 66 | 267 | 1.7 | 3.5 | 0.00 | 0.06 | 0.06 | 99 | 1011.6 |
| 20260507052828 | 66 | 188 | 1.7 | 6.1 | 0.00 | 0.06 | 0.06 | 99 | 1011.3 |
| 20260507052325 | 67 | 237 | 1.7 | 2.6 | 0.00 | 0.06 | 0.06 | 99 | 1011.4 |
| 20260507051822 | 67 | 234 | 0.0 | 2.6 | 0.00 | 0.06 | 0.06 | 99 | 1011.7 |
| 20260507051320 | 67 | 236 | 1.7 | 2.6 | 0.00 | 0.06 | 0.06 | 99 | 1011.4 |
| 20260507050817 | 67 | 229 | 0.9 | 2.6 | 0.00 | 0.06 | 0.06 | 99 | 1011.5 |
| 20260507050313 | 67 | 54 | 0.0 | 2.6 | 0.02 | 0.06 | 0.06 | 99 | 1011.3 |
| 20260507045810 | 67 | 283 | 1.7 | 1.7 | 0.02 | 0.06 | 0.06 | 99 | 1011.1 |
| 20260507045307 | 67 | 255 | 0.0 | 2.6 | 0.07 | 0.06 | 0.06 | 99 | 1011.0 |
| 20260507044803 | 67 | 195 | 0.0 | 2.6 | 0.09 | 0.06 | 0.06 | 99 | 1011.2 |
| 20260507044300 | 67 | 158 | 1.7 | 3.5 | 0.05 | 0.05 | 0.05 | 99 | 1011.7 |
| 20260507043756 | 67 | 257 | 2.6 | 2.6 | 0.12 | 0.04 | 0.04 | 99 | 1012.2 |
| 20260507043253 | 67 | 233 | 0.9 | 2.6 | 0.14 | 0.04 | 0.04 | 99 | 1012.5 |
| 20260507042749 | 67 | 218 | 3.5 | 7.0 | 0.07 | 0.02 | 0.02 | 99 | 1012.5 |
| 20260507042244 | 67 | 240 | 2.6 | 3.5 | 0.05 | 0.02 | 0.02 | 99 | 1012.7 |
| 20260507041742 | 67 | 200 | 2.6 | 5.2 | 0.02 | 0.01 | 0.01 | 99 | 1012.7 |
| 20260507041238 | 66 | 213 | 1.7 | 2.6 | 0.05 | 0.01 | 0.01 | 99 | 1012.7 |
| 20260507040736 | 67 | 229 | 1.7 | 3.5 | 0.05 | 0.01 | 0.01 | 99 | 1012.5 |
| 20260507040231 | 66 | 225 | 1.7 | 3.5 | 0.02 | 0.00 | 0.00 | 99 | 1012.4 |
| 20260507035727 | 66 | 211 | 0.0 | 1.7 | 0.02 | 0.07 | 0.07 | 99 | 1013.0 |
| 20260507035222 | 67 | 243 | 0.0 | 2.6 | 0.02 | 0.07 | 0.07 | 98 | 1012.5 |
| 20260507034715 | 67 | 232 | 0.0 | 1.7 | 0.02 | 0.07 | 0.07 | 98 | 1012.3 |
| 20260507034212 | 67 | 221 | 0.0 | 1.7 | 0.00 | 0.07 | 0.07 | 97 | 1012.1 |
| 20260507033710 | 67 | 214 | 0.0 | 3.5 | 0.02 | 0.07 | 0.07 | 97 | 1012.1 |
| 20260507033207 | 67 | 209 | 1.7 | 2.6 | 0.02 | 0.07 | 0.07 | 96 | 1012.1 |
| 20260507032704 | 68 | 250 | 1.7 | 2.6 | 0.00 | 0.06 | 0.06 | 95 | 1011.9 |
| 20260507032154 | 68 | 252 | 0.0 | 2.6 | 0.00 | 0.06 | 0.06 | 94 | 1012.0 |
| 20260507031651 | 68 | 310 | 0.0 | 7.8 | 0.00 | 0.06 | 0.06 | 94 | 1012.0 |
| 20260507031148 | 68 | 264 | 1.7 | 2.6 | 0.00 | 0.06 | 0.06 | 93 | 1011.8 |
| 20260507030645 | 68 | 218 | 1.7 | 3.5 | 0.00 | 0.06 | 0.06 | 93 | 1012.2 |
| 20260507030143 | 68 | 250 | 1.7 | 2.6 | 0.00 | 0.06 | 0.06 | 91 | 1012.0 |
| 20260507025640 | 69 | 243 | 0.0 | 1.7 | 0.00 | 0.06 | 0.06 | 90 | 1011.6 |
| 20260507025137 | 69 | 33 | 0.9 | 1.7 | 0.00 | 0.06 | 0.06 | 90 | 1011.9 |
| 20260507024635 | 69 | 320 | 2.6 | 5.2 | 0.00 | 0.06 | 0.06 | 89 | 1011.8 |
| 20260507024132 | 69 | 3 | 0.0 | 4.3 | 0.00 | 0.06 | 0.06 | 89 | 1011.7 |
| 20260507023627 | 69 | 247 | 2.6 | 6.1 | 0.00 | 0.06 | 0.06 | 90 | 1011.6 |
| 20260507023125 | 69 | 246 | 2.6 | 3.5 | 0.00 | 0.06 | 0.06 | 90 | 1011.7 |
| 20260507022621 | 69 | 214 | 2.6 | 3.5 | 0.00 | 0.06 | 0.06 | 89 | 1011.7 |
| 20260507022116 | 69 | 211 | 0.9 | 2.6 | 0.00 | 0.06 | 0.06 | 90 | 1011.3 |
| 20260507021614 | 69 | 220 | 0.9 | 2.6 | 0.00 | 0.06 | 0.06 | 90 | 1011.3 |
| 20260507021109 | 69 | 265 | 0.0 | 1.7 | 0.00 | 0.06 | 0.06 | 90 | 1011.3 |
| 20260507020608 | 68 | 239 | 1.7 | 6.1 | 0.00 | 0.06 | 0.06 | 91 | 1011.1 |
| 20260507020103 | 68 | 220 | 2.6 | 2.6 | 0.00 | 0.06 | 0.06 | 91 | 1011.6 |
| 20260507015602 | 68 | 26 | 0.0 | 1.7 | 0.00 | 0.06 | 0.06 | 91 | 1011.2 |
| 20260507015059 | 68 | 207 | 0.9 | 2.6 | 0.00 | 0.06 | 0.06 | 91 | 1011.2 |
| 20260507014555 | 68 | 211 | 1.7 | 3.5 | 0.00 | 0.06 | 0.06 | 90 | 1011.7 |
| 20260507014045 | 68 | 221 | 1.7 | 1.7 | 0.00 | 0.06 | 0.06 | 90 | 1012.0 |
| 20260507013542 | 69 | 237 | 1.7 | 3.5 | 0.00 | 0.06 | 0.06 | 90 | 1012.1 |
| 20260507013040 | 68 | 274 | 0.0 | 1.7 | 0.00 | 0.06 | 0.06 | 90 | 1012.1 |
| 20260507012537 | 69 | 258 | 0.0 | 1.7 | 0.00 | 0.06 | 0.06 | 90 | 1012.3 |
| 20260507012033 | 69 | 243 | 0.0 | 2.6 | 0.00 | 0.06 | 0.06 | 89 | 1012.1 |
| 20260507011530 | 69 | 94 | 0.0 | 2.6 | 0.00 | 0.06 | 0.06 | 89 | 1012.1 |
| 20260507011025 | 69 | 236 | 1.7 | 2.6 | 0.00 | 0.06 | 0.06 | 89 | 1011.9 |